Wind_Speed
112 109 108 105 105 105 104 103 100 99 96 91 82 76 71 63 59 55 54 54 52 48 44 39 39 49 54 54 52 50 53 54 54 51 52 52 47 47
112 113 113 110 105 104 105 103 101 103 98 91 85 81 78 66 59 55 55 55 50 50 44 39 39 62 56 59 58 58 56 55 56 52 59 61 56 57
103 104 103 104 101 100 100 100 99 98 97 89 85 85 80 63 59 54 56 56 52 49 46 45 39 64 64 59 60 55 60 57 59 62 64 58 58 56
93 93 96 98 96 96 99 97 96 95 91 85 86 80 68 64 56 57 57 58 56 49 47 46 41 57 67 63 54 59 66 67 67 71 72 67 69 70
85 87 92 96 97 94 91 92 93 95 91 87 85 78 66 63 59 58 57 59 56 52 48 47 47 47 65 59 68 61 61 63 62 62 66 68 71 74
80 82 84 89 90 91 88 90 91 89 87 85 82 77 65 60 58 59 55 61 56 57 53 48 46 44 56 68 65 64 64 63 68 70 73 72 76 76
70 73 77 80 84 89 91 90 88 86 80 79 74 73 68 60 62 61 56 62 61 61 57 53 50 47 42 52 69 68 69 76 74 78 78 77 73 74
56 56 52 54 59 64 67 75 83 86 82 76 74 70 65 59 59 57 61 63 61 60 62 60 54 54 48 46 46 49 53 59 63 68 75 80 84 85
35 37 41 42 41 46 51 49 53 59 63 64 70 67 63 50 62 61 64 69 66 64 65 63 59 53 51 53 51 50 57 60 62 63 69 69 77 84
31 35 34 30 34 34 30 29 32 38 48 54 60 64 61 64 66 65 55 71 66 62 65 61 59 55 53 55 56 57 60 57 52 57 58 54 51 51
32 35 39 39 37 40 37 34 33 42 49 58 61 63 63 65 68 71 75 74 71 64 58 67 68 61 60 62 62 61 60 59 55 52 50 48 48 49
38 40 44 49 45 37 30 25 32 56 54 57 57 62 70 73 73 70 69 73 76 73 60 59 62 64 63 67 67 64 63 63 62 58 49 50 51 52
48 47 47 46 41 33 37 42 49 43 46 52 59 54 71 81 76 77 73 73 71 74 70 65 63 65 65 67 69 68 67 66 63 64 63 55 54 55
47 50 50 52 49 48 49 48 48 44 47 49 48 58 60 67 68 73 74 76 78 79 78 79 72 72 71 70 72 73 70 71 71 69 66 64 62 62
49 47 52 55 52 58 60 57 54 50 49 57 64 66 68 64 66 70 73 74 73 77 78 77 79 78 80 79 78 78 77 78 75 73 71 69 70 67
56 57 56 58 59 59 59 67 64 59 58 68 73 68 74 76 82 81 79 79 81 82 84 84 87 88 88 86 85 83 83 83 81 81 78 75 78 76
60 58 58 60 64 66 67 67 73 73 69 70 78 79 73 77 80 85 79 82 80 86 88 90 89 91 90 93 92 93 90 88 86 84 83 81 81 81
65 65 64 63 63 68 69 70 72 75 75 79 84 86 86 86 87 87 86 87 88 92 89 93 94 96 97 97 98 98 95 95 95 93 92 88 87 88
72 72 72 72 72 71 72 79 78 79 80 81 84 90 92 92 93 95 91 91 93 95 96 99 100 102 104 105 104 104 102 101 101 97 95 94 94 92
79 80 80 79 79 80 79 79 80 83 84 90 92 93 95 100 100 101 98 99 102 103 103 104 106 106 106 106 105 107 106 103 104 103 100 99 102 100
88 88 88 88 88 87 88 88 87 86 88 94 97 101 102 105 106 108 111 108 108 106 106 107 108 108 110 112 114 114 112 111 111 109 109 107 106 106
96 96 97 96 97 98 97 98 99 99 99 100 101 106 109 111 113 111 111 115 115 115 116 116 112 112 114 113 113 115 115 117 117 115 113 113 111 109
103 104 103 107 108 107 108 108 108 109 111 112 112 112 112 114 118 121 123 124 123 123 124 125 124 123 123 120 120 121 121 122 122 122 120 121 120 119
Wind_Direction
251 252 253 252 252 252 254 255 257 253 255 261 266 270 270 271 272 268 254 244 248 249 253 257 241 212 220 227 235 239 241 240 246 257 249 255 262 267
249 250 250 251 250 251 252 253 253 254 257 261 261 264 268 271 262 261 252 243 245 246 251 250 242 218 226 232 237 236 239 240 248 244 247 253 264 268
248 251 253 252 250 252 252 250 251 253 254 257 258 261 264 267 257 257 248 240 242 244 245 246 246 231 224 232 235 238 242 238 241 245 255 262 265 260
250 251 253 254 253 250 252 254 252 253 256 255 253 258 261 260 253 254 245 239 241 244 244 247 246 235 232 228 239 244 243 245 244 246 251 257 259 257
251 250 250 251 253 252 251 250 249 250 251 251 249 253 256 252 251 252 240 237 239 240 243 245 247 242 234 237 237 235 246 248 255 259 260 264 265 266
249 250 251 251 253 255 251 249 249 248 248 246 245 245 248 247 248 250 240 235 235 239 240 246 247 247 235 234 244 241 242 246 249 253 256 257 263 264
252 252 252 251 249 250 249 245 244 244 244 245 241 243 241 244 243 245 241 233 232 236 239 243 247 248 245 244 237 243 244 248 251 250 251 252 253 259
253 247 248 249 251 248 246 240 237 237 238 240 240 239 237 243 241 243 236 231 230 233 234 242 243 247 246 247 244 247 249 254 255 258 259 261 259 257
239 248 258 256 250 241 235 229 231 232 233 235 236 230 234 244 242 238 236 236 237 238 241 240 241 248 252 255 258 257 257 258 259 261 261 268 261 258
235 237 234 226 219 204 198 206 216 224 229 233 230 233 235 230 240 235 237 237 236 242 241 238 241 250 255 256 262 261 262 261 263 266 268 268 275 268
216 218 219 213 212 207 203 202 220 231 234 238 239 237 234 231 233 238 239 236 238 238 245 242 244 249 253 256 260 261 259 258 268 272 274 275 278 273
220 214 221 228 221 220 228 232 213 240 240 242 244 242 231 229 233 238 238 242 240 243 242 247 248 252 254 257 259 260 259 265 265 269 267 275 274 275
231 223 225 225 220 209 226 219 228 242 242 242 239 239 236 234 239 245 242 237 238 237 242 248 252 254 258 260 259 260 261 263 266 270 272 273 271 273
238 238 234 234 218 209 220 227 232 241 244 241 225 240 240 240 243 245 246 245 242 243 247 249 255 256 254 255 256 259 259 262 266 267 269 270 272 271
239 244 243 242 240 231 229 231 234 238 232 218 217 235 237 231 231 240 243 245 244 245 246 248 251 252 252 255 255 258 259 262 263 265 267 271 274 274
241 242 242 238 240 243 244 240 239 239 243 233 222 223 228 232 233 240 244 245 245 247 247 247 249 251 252 253 256 257 259 260 262 263 266 268 272 272
238 240 244 244 242 242 244 243 244 245 246 244 239 236 231 231 234 238 239 240 245 249 248 248 249 250 252 254 256 256 258 260 261 262 264 267 269 271
237 238 238 241 243 242 240 241 244 245 246 243 237 236 237 236 238 240 240 238 240 245 249 249 248 249 252 254 256 257 257 259 260 263 266 267 270 270
238 240 240 239 238 240 241 239 241 244 244 240 239 239 239 240 242 244 241 241 242 246 248 250 252 253 254 253 255 257 258 259 262 264 267 268 268 270
243 243 243 244 243 243 243 243 241 242 242 241 239 238 239 241 242 244 246 245 246 247 251 253 254 254 256 258 260 262 264 264 265 266 267 267 269 270
246 247 246 245 246 246 246 245 245 243 243 243 243 241 240 240 242 246 248 249 248 250 253 256 258 260 261 263 264 265 265 265 267 269 271 271 271 273
249 250 249 249 249 249 248 248 249 248 247 245 244 244 244 245 246 246 249 250 251 251 253 254 258 260 261 262 263 265 266 267 267 267 268 269 270 269
255 254 253 252 252 252 252 252 251 250 250 250 250 250 250 248 248 249 251 251 251 253 253 254 256 258 259 260 262 263 264 265 266 267 267 268 269 270
Height
10529 10532 10537 10544 10547 10550 10549 10550 10550 10555 10560 10560 10558 10556 10559 10568 10570 10570 10572 10579 10584 10586 10588 10591 10593 10597 10601 10606 10608 10611 10614 10618 10620 10624 10626 10626 10629 10630
10508 10511 10518 10523 10527 10530 10531 10531 10534 10537 10543 10541 10542 10541 10546 10558 10557 10556 10558 10566 10571 10574 10577 10579 10583 10585 10589 10594 10597 10600 10603 10606 10610 10614 10614 10616 10617 10618
10483 10486 10490 10493 10502 10504 10506 10511 10514 10517 10524 10522 10524 10524 10533 10543 10542 10542 10545 10552 10557 10561 10566 10568 10571 10575 10578 10581 10586 10590 10593 10596 10600 10602 10600 10603 10605 10607
10457 10462 10464 10461 10467 10479 10478 10485 10491 10494 10502 10506 10506 10510 10519 10526 10528 10528 10531 10537 10542 10548 10552 10556 10559 10562 10566 10570 10576 10579 10582 10586 10587 10586 10591 10592 10592 10592
10433 10438 10440 10436 10439 10449 10457 10460 10466 10470 10480 10487 10490 10496 10504 10508 10512 10515 10518 10522 10528 10534 10539 10544 10547 10549 10553 10559 10561 10564 10568 10570 10575 10573 10575 10577 10578 10578
10408 10413 10416 10417 10422 10425 10433 10437 10440 10449 10458 10466 10475 10483 10487 10491 10497 10502 10504 10509 10514 10519 10526 10531 10535 10537 10541 10546 10549 10553 10557 10559 10559 10561 10562 10563 10564 10564
10390 10393 10394 10395 10395 10396 10401 10412 10419 10428 10438 10449 10461 10465 10469 10474 10480 10484 10490 10495 10501 10507 10512 10516 10522 10526 10527 10530 10534 10536 10541 10545 10546 10546 10547 10547 10547 10547
10370 10371 10372 10374 10375 10376 10380 10386 10399 10410 10423 10434 10443 10449 10451 10460 10464 10470 10475 10482 10488 10492 10496 10503 10508 10511 10515 10519 10521 10524 10525 10527 10529 10529 10529 10529 10530 10529
10354 10357 10358 10358 10359 10362 10366 10373 10386 10398 10411 10419 10427 10432 10438 10448 10449 10457 10462 10468 10475 10478 10485 10489 10494 10498 10502 10504 10507 10510 10511 10513 10513 10513 10513 10511 10507 10506
10347 10349 10351 10352 10355 10358 10362 10370 10379 10386 10396 10403 10409 10416 10423 10430 10435 10442 10448 10452 10458 10464 10470 10475 10479 10483 10487 10491 10491 10494 10495 10496 10497 10496 10496 10494 10491 10488
10342 10343 10345 10349 10353 10355 10358 10364 10373 10380 10385 10388 10394 10400 10408 10413 10417 10423 10430 10435 10442 10449 10454 10460 10464 10468 10471 10474 10476 10477 10478 10480 10481 10480 10479 10478 10477 10475
10334 10337 10339 10344 10348 10352 10356 10368 10370 10382 10375 10378 10384 10390 10395 10399 10404 10409 10415 10421 10427 10434 10438 10444 10446 10450 10454 10456 10457 10459 10461 10463 10465 10466 10464 10464 10462 10461
10322 10332 10334 10337 10338 10340 10345 10354 10360 10362 10363 10365 10372 10379 10383 10388 10392 10395 10402 10405 10410 10416 10419 10424 10428 10430 10434 10436 10439 10441 10443 10445 10447 10448 10449 10448 10447 10447
10315 10319 10324 10324 10327 10329 10333 10336 10340 10344 10348 10351 10359 10364 10368 10372 10378 10377 10382 10386 10392 10396 10400 10404 10408 10410 10413 10418 10419 10421 10423 10426 10427 10429 10430 10431 10431 10431
10304 10306 10309 10312 10314 10318 10320 10323 10326 10329 10334 10336 10341 10346 10349 10353 10356 10356 10362 10366 10370 10374 10378 10383 10387 10390 10394 10397 10399 10401 10404 10405 10407 10408 10409 10411 10413 10414
10290 10290 10293 10295 10299 10302 10304 10307 10310 10314 10318 10321 10319 10321 10326 10331 10334 10336 10341 10346 10350 10352 10355 10359 10363 10367 10371 10374 10377 10380 10383 10385 10387 10388 10390 10391 10393 10394
10272 10274 10276 10278 10280 10283 10286 10288 10291 10294 10297 10301 10305 10307 10309 10310 10313 10315 10318 10323 10325 10328 10330 10335 10339 10342 10345 10349 10353 10356 10359 10362 10364 10366 10367 10370 10372 10373
10252 10254 10255 10257 10259 10262 10264 10267 10270 10273 10276 10279 10282 10285 10288 10290 10292 10294 10296 10299 10301 10304 10306 10308 10313 10315 10318 10322 10326 10329 10333 10337 10339 10342 10345 10347 10349 10348
10231 10233 10235 10237 10239 10241 10243 10246 10249 10251 10253 10256 10259 10262 10264 10265 10268 10270 10273 10276 10278 10279 10282 10283 10285 10287 10291 10295 10298 10301 10304 10307 10312 10316 10318 10319 10322 10324
10213 10214 10215 10217 10219 10221 10223 10225 10226 10228 10230 10233 10235 10237 10239 10241 10243 10245 10248 10251 10254 10255 10256 10257 10260 10262 10265 10268 10270 10273 10275 10280 10282 10285 10289 10293 10295 10296
10190 10191 10192 10194 10196 10197 10198 10200 10202 10203 10204 10206 10208 10210 10211 10212 10215 10218 10220 10223 10226 10228 10229 10231 10233 10235 10239 10241 10242 10245 10248 10250 10253 10255 10258 10262 10264 10265
10167 10168 10168 10169 10170 10170 10171 10171 10172 10173 10174 10175 10176 10178 10180 10182 10184 10186 10188 10190 10193 10196 10198 10201 10203 10205 10207 10210 10212 10213 10216 10218 10221 10224 10227 10229 10232 10232
10137 10137 10137 10137 10138 10138 10139 10139 10140 10140 10141 10142 10143 10145 10147 10148 10150 10151 10153 10155 10158 10161 10163 10165 10167 10170 10173 10176 10179 10181 10183 10185 10187 10189 10192 10196 10198 10199